Tracking 30415 objects as of 14-May-2025
HD Live streaming from Space Station
objects crossing your sky now

STARLINK-5038

Track STARLINK-5038 now!
10-day predictions
STARLINK-5038 is classified as:


NORAD ID: 56472
Int'l Code: 2023-064AA
Perigee: 576.8 km
Apogee: 581.6 km
Inclination: 70.0 °
Period: 96.1 minutes
Semi major axis: 6950 km
RCS: Unknown
Launch date: May 10, 2023
Source: United States (US)
Launch site: AIR FORCE WESTERN TEST RANGE (AFWTR)
Your satellite tracking list
Your tracking list is empty




NASA's NSSDC Master Catalog

Two Line Element Set (TLE):
1 56472U 23064AA  25133.50700949 -.00000164  00000-0 -59825-5 0  9994
2 56472  69.9989 161.3727 0003419 268.4823  91.5944 14.98329464110771
Source of the keplerian elements: AFSPC